Flugplatz Bad Frankenhausen

Für EDOF sind keine METAR/TAF Berichte vorhanden.
Es werden die Flugwettermeldungen vom Flugplatz Erfurt in 45 km Entfernung angezeigt.

Bericht für EDDE

vom 07.12. um 17:50 UTC

Wind 6 kt aus 180°

Sichtweite 10 km oder mehr

aufgelockert bewölkt in 4400 ft

Temperatur 0.0°C

Taupunkt -2.0°C

Luftfeuchtigkeit 86%

Luftdruck 1008 hPa

keine wesentliche Wetteränderung innerhalb den nächsten 2 Stunden zu erwarten

EDDE 071750Z 18006KT 9999 SCT044 00/M02 Q1008 NOSIG

Prognose für EDDE

vom 07.12. um 17:00 UTC

Zwischen 18:00 UTC und 18:00 UTC

Wind 5 kt aus 210°

Sichtweite 10 km oder mehr

aufgelockert bewölkt in 4500 ft


Zwischen 18:00 und 21:00 UTC übergehend zu

Wind 7 kt aus 150°

Sichtweite 10 km oder mehr

aufgelockert bewölkt in 4500 ft


Am 08.12. zwischen 05:00 UTC und 11:00 UTC zeitweise

Sichtweite 4500 m

schwacher Regen

schwacher Schnee

aufgebrochene Bewölkung in 1200 ft


Am 08.12. zwischen 12:00 und 14:00 UTC übergehend zu

variable Windrichtung mit 2 kt

Sichtweite 10 km oder mehr

aufgelockert bewölkt in 4500 ft

TAF EDDE 071700Z 0718/0818 21005KT 9999 SCT045 BECMG 0718/0721 15007KT TEMPO 0805/0811 4500 -RASN BKN012 BECMG 0812/0814 VRB02KT
Impressum